Wautoma, WI

4:30 PM CDT on August 29, 2016 (GMT -0500)
Wautoma

Weather History for KY50 - July, 2013

Change the Weather History Date:

Friday, July 19, 2013

  Actual Average (KPCZ) Record (KPCZ)
Temperature  
Mean Temperature 82 °F -  
Max Temperature 95 °F 82 °F 97 °F (1957)
Min Temperature 63 °F 61 °F 47 °F (1965)
Cooling Degree Days 16    
Growing Degree Days 32 (Base 50)    
Moisture  
Dew Point 66 °F    
Average Humidity 60    
Maximum Humidity 87    
Minimum Humidity 28    
Precipitation  
Precipitation 0.00 in - - ()
Sea Level Pressure  
Sea Level Pressure 29.76 in    
Wind  
Wind Speed 10 mph (WSW)    
Max Wind Speed 20 mph    
Max Gust Speed 25 mph    
Visibility 10 miles    
Events Rain    
Averages and records for this station are not official NWS values.
T = Trace of Precipitation, MM = Missing Value Source: NWS Daily Summary

Daily Weather History Graph

Daily Weather History Graph

Search for Another Location

Airport or City:

Trip Planner

Search our weather history database for the weather conditions in past years. The results will help you decide how hot, cold, wet, or windy it might be!

Date:

Astronomy

Jul. 19, 2013 Rise Set
Actual Time 5:32 AM CDT 8:34 PM CDT
Civil Twilight 4:57 AM CDT 9:08 PM CDT
Nautical Twilight 4:13 AM CDT 9:52 PM CDT
Astronomical Twilight 3:20 AM CDT 10:45 PM CDT
Moon 5:36 PM CDT (7/19) 2:13 AM CDT (7/19)
Length of Visible Light 16h 11m
Length of Day
15h 02m
Waxing Gibbous, 87% of the Moon is Illuminated
Jul 19
Waxing Gibbous
Jul 22
Full
Jul 29
Last Quarter
Aug 6
New
Aug 14
First Quarter

Hourly Weather History & Observations

Time (CDT) Temp. Heat Index Dew Point Humidity Pressure Visibility Wind Dir Wind Speed Gust Speed Precip Events Conditions
12:56 AM 79.0 °F - 70.0 °F 74% 29.82 in 10.0 mi SSW 6.9 mph - N/A   Clear
1:56 AM 77.9 °F - 70.0 °F 76% 29.81 in 10.0 mi SSW 6.9 mph - N/A   Clear
2:56 AM 77.9 °F - 68.9 °F 74% 29.78 in 10.0 mi SW 6.9 mph - N/A   Clear
3:56 AM 77.9 °F - 68.0 °F 71% 29.75 in 10.0 mi SSW 6.9 mph - N/A   Clear
4:56 AM 77.9 °F - 68.0 °F 71% 29.74 in 10.0 mi SW 10.4 mph - N/A   Clear
5:56 AM 77.9 °F - 68.0 °F 71% 29.74 in 10.0 mi SW 10.4 mph - N/A   Mostly Cloudy
6:56 AM 81.0 °F 84.1 °F 68.9 °F 67% 29.75 in 10.0 mi WSW 12.7 mph - N/A   Clear
7:56 AM 81.0 °F 84.4 °F 70.0 °F 69% 29.75 in 10.0 mi SW 10.4 mph - N/A   Partly Cloudy
8:56 AM 79.9 °F - 70.9 °F 74% 29.75 in 10.0 mi WSW 9.2 mph - 0.00 in Rain Light Rain
9:56 AM 83.8 °F 88.6 °F 70.9 °F 65% 29.75 in 10.0 mi WSW 13.8 mph - 0.00 in   Clear
10:56 AM 86.9 °F 92.5 °F 70.9 °F 59% 29.74 in 10.0 mi WSW 13.8 mph 20.7 mph N/A   Clear
11:56 AM 90.0 °F 95.9 °F 70.9 °F 53% 29.73 in 10.0 mi SW 12.7 mph 19.6 mph N/A   Clear
12:56 PM 92.8 °F 99.7 °F 70.9 °F 49% 29.72 in 10.0 mi SW 15.0 mph - N/A   Clear
1:56 PM 93.9 °F 97.5 °F 66.9 °F 41% 29.71 in 10.0 mi WSW 19.6 mph 24.2 mph N/A   Scattered Clouds
2:56 PM 92.8 °F 94.3 °F 63.9 °F 38% 29.71 in 10.0 mi West 16.1 mph - N/A   Clear
3:56 PM 93.2 °F 94.9 °F 64.4 °F 38% 29.74 in 10.0 mi West 17.3 mph 25.3 mph N/A   Scattered Clouds
4:56 PM 92.8 °F 90.9 °F 54.9 °F 28% 29.71 in 10.0 mi WNW 19.6 mph 25.3 mph N/A   Clear
5:56 PM 88.9 °F 89.7 °F 63.0 °F 42% 29.72 in 10.0 mi WNW 15.0 mph 21.9 mph N/A   Clear
6:56 PM 86.9 °F 87.2 °F 61.9 °F 43% 29.74 in 10.0 mi NW 12.7 mph - N/A   Clear
7:56 PM 81.9 °F 83.1 °F 63.0 °F 53% 29.75 in 10.0 mi NW 9.2 mph - N/A   Clear
8:56 PM 77.9 °F - 63.0 °F 60% 29.78 in 10.0 mi NW 5.8 mph - N/A   Clear
9:56 PM 73.9 °F - 61.0 °F 64% 29.80 in 10.0 mi NW 5.8 mph - N/A   Clear
10:56 PM 70.0 °F - 59.9 °F 70% 29.82 in 10.0 mi NW 3.5 mph - N/A   Clear
11:56 PM 63.9 °F - 59.9 °F 87% 29.83 in 10.0 mi Calm Calm - N/A   Clear